www.pogodaiklimat.ru

Погода и климат >> Архив погоды >> Сербия >> Кикинда


ПОГОДА в Кикинде

  • Прогноз погоды в Кикинде
  • Монитор погоды в Кикинде

АРХИВ ПОГОДЫ в Кикинде

Время (UTC), дата Ветер
(напр.,м/с)
 
Видим.   Явления Облачность Т
(С)
Тd
(С)
f
(%)
Тe
(С)
Тes
(С)
Комфортность P
(гПа)
Po
(гПа)
Тmin
(С)
Tmax
(С)
R
(мм)
R24
(мм)
S
(см)
13 9.07 ЮЗ 2 20 км 6/4 1000 м
[Cu Sc Ci sp]
+25.3 +13.1 47 +27 +35 жарко 1013.6 1004.1
14 9.07 З 3 20 км 9/5 1000 м
[Cu Sc Ac As]
+24.1 +13.2 51 +26 +28 жарко 1013.3 1003.8
15 9.07 З 3 20 км 9/5 1000 м
[Cu Sc Ac As]
+22.8 +14.6 60 +26 +28 жарко 1013.6 1004.1
16 9.07 З 3 20 км 9/6 1000 м
[Sc Ac trans]
+20.5 +16.3 77 +24 +25 комфорт 1013.2 1003.6
17 9.07 З 3 20 км 9/8 1000 м
[Sc Ac trans]
+20.7 +15.8 74 +24 +24 комфорт 1013.1 1003.5
18 9.07 З 2 20 км 8/5 1000 м
[Sc Ac trans Ci fib]
+20.4 +15.9 75 +24 +24 комфорт 1012.8 1003.2 +25.4
19 9.07 З 2 20 км 6/5 1000 м
[Sc Ac trans]
+19.5 +15.7 79 +22 +22 комфорт 1013.2 1003.5
20 9.07 З 2 20 км 5/1 1000 м
[Sc Ac trans Ci sp]
+18.3 +15.4 83 +19 +19 1013.7 1004.0
21 9.07 З 2 20 км 9/4 1000 м
[Sc Ac As]
+18.4 +15.0 81 +19 +19 1014.1 1004.4
22 9.07 СЗ 2 20 км 9/9 1000 м
[Sc]
+17.8 +14.0 78 +18 +18 1013.8 1004.1
23 9.07 З 2 20 км 9/8 1000 м
[Sc Ac trans]
+17.5 +12.3 72 +18 +18 1013.6 1003.9
00 10.07 З 1 20 км 9/8 1000 м
[Sc Ac trans]
+16.9 +12.0 73 +18 +18 1013.4 1003.7
01 10.07 С 2 20 км 9/8 1000 м
[Sc Ac trans]
+15.9 +11.4 75 +16 +16 1013.3 1003.5
02 10.07 С 2 20 км 9/6 1000 м
[Sc Ac trans]
+14.7 +10.3 75 +14 +14 1013.1 1003.3
03 10.07 С 2 20 км 8/3 1000 м
[Sc Ac As Ci sp]
+13.7 +9.9 78 +13 +13 1013.1 1003.3
04 10.07 С 2 20 км 9/6 1000 м
[Sc Ac trans Ci sp]
+14.3 +9.6 73 +14 +14 1013.0 1003.2
05 10.07 С 2 20 км 9/6 1000 м
[Sc Ac trans Ci sp]
+14.8 +9.4 70 +15 +15 1013.2 1003.4
06 10.07 С 2 20 км 9/8 1000 м
[Sc Ac trans]
+16.5 +10.6 68 +17 +17 1013.7 1003.9 +13.5
07 10.07 З 1 20 км 8/6 1000 м
[Sc Ac trans]
+18.0 +11.0 64 +19 +22 1014.1 1004.4
08 10.07 З 2 20 км 9/8 1000 м
[Sc Ac trans]
+18.3 +12.5 69 +19 +21 1014.4 1004.7
09 10.07 З 3 20 км 10/10 1000 м
[Cu Sc]
+19.7 +11.4 59 +21 +21 комфорт 1014.4 1004.7
10 10.07 З 3 20 км 10/10 1000 м
[Sc]
+20.1 +10.3 53 +22 +22 комфорт 1014.2 1004.6
11 10.07 СЗ 4 20 км 10/9 1000 м
[Sc]
+20.3 +9.1 49 +22 +22 комфорт 1014.1 1004.5
12 10.07 СЗ 5 20 км 8/6 1000 м
[Cu Sc Ac trans]
+20.7 +8.5 45 +22 +24 комфорт 1014.1 1004.5
13 10.07 СЗ 3 20 км 8/5 1000 м
[Cu Sc Ac trans Ci sp]
+22.3 +6.3 35 +23 +27 комфорт 1013.7 1004.1
14 10.07 З 3 20 км 8/5 1000 м
[Cu Sc Ac trans Ci sp]
+21.7 +8.1 42 +23 +26 комфорт 1013.5 1003.9
15 10.07 З 3 20 км 6/4 1000 м
[Cu Sc Ac trans Ci sp]
+22.3 +9.4 44 +24 +27 комфорт 1013.2 1003.6
16 10.07 З 3 20 км 6/5 1000 м
[Cu Sc Ac trans]
+22.1 +9.1 43 +23 +25 комфорт 1013.0 1003.4
17 10.07 СЗ 2 20 км 6/5 1000 м
[Cu Sc Ac trans]
+21.6 +8.4 43 +23 +23 комфорт 1013.1 1003.5
18 10.07 З 1 20 км 1/1 1000 м
[Sc]
+20.6 +9.9 50 +23 +23 комфорт 1013.0 1003.4 +22.7
19 10.07 З 2 20 км ясно +17.4 +10.7 65 +18 +18 1012.9 1003.2
20 10.07 З 1 20 км ясно +15.2 +10.5 74 +16 +16 1013.5 1003.7
21 10.07 З 1 20 км ясно +14.3 +10.6 78 +15 +15 1013.7 1003.9
22 10.07 З 2 20 км ясно +14.1 +10.6 79 +14 +14 1013.8 1004.0
23 10.07 З 2 20 км ясно +13.7 +9.9 78 +13 +13 1013.8 1003.9
00 11.07 З 2 20 км ясно +12.2 +9.3 82 +11 +11 1013.7 1003.8
01 11.07 З 2 20 км ясно +11.3 +8.9 85 +10 +10 1013.5 1003.6
02 11.07 З 2 20 км ясно +11.1 +8.7 85 +10 +10 1013.3 1003.4
03 11.07 З 2 20 км ясно +10.3 +8.2 87 +9 +9 1013.5 1003.5
04 11.07 З 2 20 км ясно +11.2 +8.2 82 +10 +11 1013.5 1003.6
05 11.07 СЗ 2 20 км ясно +13.0 +9.6 80 +12 +15 1013.4 1003.5
06 11.07 З 2 20 км ясно +16.3 +10.2 67 +16 +22 1013.6 1003.8 +10.3
07 11.07 СЗ 3 20 км ясно +18.7 +10.8 60 +19 +27 1013.4 1003.7
08 11.07 З 4 20 км ясно +21.0 +11.5 55 +23 +32 комфорт 1013.4 1003.8
09 11.07 СЗ 5 20 км ясно +22.1 +9.8 46 +24 +32 комфорт 1013.5 1003.9
10 11.07 С 5 20 км 1/1 1000 м
[Cu hum]
+23.1 +9.6 42 +25 +33 комфорт 1013.0 1003.5
11 11.07 СЗ 5 20 км 3/3 1000 м
[Cu hum]
+24.0 +9.0 38 +25 +32 комфорт 1012.6 1003.1
12 11.07 С 4 20 км 4/4 1000 м
[Cu med, cong]
+23.9 +8.0 36 +24 +31 комфорт 1012.1 1002.6
13 11.07 З 4 20 км 6/6 1000 м
[Cu Sc]
+24.0 +6.9 33 +24 +28 комфорт 1011.7 1002.2
14 11.07 СЗ 4 20 км 5/5 1000 м
[Cu Sc]
+25.1 +8.6 35 +26 +29 жарко 1011.5 1002.0
15 11.07 З 4 20 км 5/4 1000 м
[Cu Sc Ac trans]
+25.5 +9.1 35 +26 +28 жарко 1011.2 1001.8
16 11.07 З 4 20 км 4/3 1000 м
[Cu Sc Ac trans]
+24.8 +8.3 35 +25 +27 комфорт 1011.1 1001.6
17 11.07 З 3 20 км 4/3 1000 м
[Cu Sc Ac trans]
+24.1 +9.9 41 +25 +26 комфорт 1011.1 1001.6
18 11.07 СВ 3 20 км 6/6 1000 м
[Sc]
+20.3 +10.6 54 +22 +22 комфорт 1011.9 1002.3 +25.7
19 11.07 В 3 15 км 8/8 1000 м
[Sc]
+17.6 +11.7 68 +18 +18 1012.5 1002.8
20 11.07 В 2 15 км 4/4 1000 м
[Sc]
+16.2 +13.0 81 +16 +16 1013.0 1003.2
21 11.07 штиль 0 15 км ясно +15.2 +11.4 78 +15 +15 1013.3 1003.5
22 11.07 В 1 15 км ясно +13.4 +10.9 85 +14 +14 1013.5 1003.6
23 11.07 В 1 15 км ясно +12.7 +10.7 88 +13 +13 1013.9 1004.0
00 12.07 В 1 15 км ясно +12.2 +10.2 88 +12 +12 1013.9 1004.0
01 12.07 штиль 0 15 км ясно +12.1 +9.9 86 +12 +12 1014.0 1004.1
02 12.07 С 1 15 км ясно +11.4 +9.4 88 +11 +11 1013.5 1003.6
03 12.07 СВ 2 15 км ясно +10.8 +8.9 88 +9 +9 1013.5 1003.6
04 12.07 СВ 2 15 км ясно +11.8 +9.6 86 +11 +11 1013.9 1004.0
05 12.07 В 1 20 км ясно +14.8 +11.9 83 +15 +18 1014.1 1004.3
06 12.07 В 2 20 км 3/0
[Ac trans Ci sp]
+17.3 +11.7 70 +18 +22 1014.0 1004.3 +10.6
07 12.07 ЮВ 3 20 км 4/0
[Ac trans Ci sp]
+19.6 +11.9 61 +21 +27 комфорт 1014.0 1004.3
08 12.07 ЮВ 2 20 км 4/0
[Ac trans Ci sp]
+21.5 +10.5 50 +23 +35 комфорт 1014.0 1004.4
09 12.07 Ю 2 20 км 3/0
[Ci sp]
+22.6 +8.9 42 +24 +39 комфорт 1014.0 1004.4
10 12.07 Ю 2 20 км 5/0
[Ac trans Ci sp]
+23.2 +7.9 37 +24 +38 комфорт 1013.6 1004.1
11 12.07 Ю 2 20 км 8/1 1000 м
[Cu med, cong Ac trans Ci sp]
+24.3 +6.1 31 +24 +34 комфорт 1013.2 1003.7
12 12.07 З 2 20 км 8/5 1000 м
[Cu Sc Ci sp]
+25.5 +5.6 28 +25 +32 комфорт 1013.0 1003.5
13 12.07 З 4 20 км 9/9 1000 м
[Cu Sc]
+25.0 +5.9 29 +25 +26 комфорт 1012.9 1003.4
14 12.07 СЗ 4 20 км 10/10 1000 м
[Cu Sc]
+19.0 +8.3 50 +20 +20 1013.3 1003.6
15 12.07 С 2 20 км 10/10 1000 м
[Cu Sc]
+20.3 +12.0 59 +23 +23 комфорт 1013.0 1003.4
16 12.07 С 3 20 км слаб. дождь 10/10 1000 м
[Cu Sc]
+20.1 +12.1 60 +22 +22 комфорт 1012.8 1003.2
17 12.07 С 2 20 км в посл. час дождь 9/9 1000 м
[Sc]
+20.0 +11.2 57 +22 +22 комфорт 1012.7 1003.1
18 12.07 С 1 20 км в посл. час дождь 9/8 1000 м
[Sc Ac trans]
+19.7 +11.8 60 +22 +22 комфорт 1012.5 1002.9 +25.8 0.0
19 12.07 С 1 20 км 9/9 1000 м
[Sc]
+18.9 +15.4 80 +21 +21 комфорт 1012.3 1002.6
20 12.07 В 1 20 км 6/3 1000 м
[Sc Ac trans Ci sp]
+18.2 +14.1 77 +20 +20 1012.3 1002.6
21 12.07 штиль 0 15 км 5/3 1000 м
[Sc Ac trans Ci fib]
+16.3 +13.8 85 +16 +16 1012.5 1002.7
22 12.07 В 1 15 км 8/3 1000 м
[Sc Ac trans]
+15.7 +14.2 91 +16 +16 1012.6 1002.8
23 12.07 В 1 15 км 5/0
[Ac trans Ci sp]
+15.0 +13.8 93 +15 +15 1012.3 1002.5
00 13.07 Ю 2 15 км 4/0
[Ac trans Ci sp]
+14.0 +12.8 92 +13 +13 1012.2 1002.4
01 13.07 Ю 1 15 км 1/0
[Ci sp]
+14.2 +13.0 92 +14 +14 1011.8 1002.0
02 13.07 Ю 1 15 км 4/0
[Ac trans Ci sp]
+14.2 +13.2 94 +14 +14 1011.4 1001.6
03 13.07 Ю 2 15 км 9/3 1000 м
[Sc Ac As Ci sp]
+16.6 +14.1 85 +17 +17 1010.9 1001.2
04 13.07 Ю 2 15 км 9/1 1000 м
[Sc Ac As]
+16.8 +14.2 85 +17 +17 1010.7 1001.0
05 13.07 Ю 1 15 км в посл. час дождь 10/5 1000 м
[Sc Ac As]
+17.3 +14.7 85 +18 +19 1010.8 1001.1
06 13.07 С 2 15 км {дождь} 10/8 1000 м
[Sc Ac As]
+17.7 +15.8 89 +18 +18 1011.3 1001.6 +14.0 0.0
07 13.07 В 4 15 км 9/9 1000 м
[Sc]
+18.2 +15.2 83 +18 +19 1011.2 1001.5
08 13.07 В 3 15 км 9/9 1000 м
[Sc]
+19.9 +15.6 76 +22 +24 комфорт 1010.9 1001.3
09 13.07 В 2 20 км 10/10 1000 м
[Sc]
+20.3 +15.2 73 +24 +24 комфорт 1010.9 1001.3
10 13.07 Ю 3 20 км 9/8 1000 м
[Sc Ac trans]
+22.0 +16.1 69 +26 +28 душно 1010.6 1001.1
11 13.07 Ю 3 20 км 9/6 1000 м
[Cu Sc Ac trans]
+22.9 +14.7 60 +27 +30 душно 1010.3 1000.8
12 13.07 Ю 3 20 км гроза без осадков 9/6 1000 м
[Cb cap Ac As]
+22.6 +12.5 53 +25 +28 комфорт 1009.8 1000.3
13 13.07 Ю 1 20 км гроза без осадков 10/8 1000 м
[Cb cap Ac As]
+22.2 +13.5 58 +25 +26 комфорт 1009.8 1000.3
14 13.07 С 3 15 км в посл. час гроза 9/9 1000 м
[Cu Sc]
+19.8 +15.0 74 +22 +23 комфорт 1009.9 1000.3
15 13.07 З 3 15 км в посл. час дождь {гроза} 9/6 1000 м
[Cu Sc Ac trans Ci sp]
+22.4 +16.2 68 +27 +28 душно 1009.6 1000.1
16 13.07 С 3 20 км 9/6 1000 м
[Cu Sc Ac trans Ci sp]
+21.0 +15.0 69 +25 +25 комфорт 1009.7 1000.1
17 13.07 С 1 20 км 6/4 1000 м
[Cu Sc Ac trans Ci sp]
+20.7 +15.2 71 +25 +25 комфорт 1009.3 999.7
18 13.07 С 1 20 км {гроза, дождь} 6/3 1000 м
[Cu Sc Ac trans Ci sp]
+19.2 +15.4 79 +22 +22 комфорт 1009.5 999.9 +24.1 0.1
19 13.07 СЗ 1 20 км 8/4 1000 м
[Sc Ac trans Ci sp]
+17.9 +15.0 83 +19 +19 1010.1 1000.4
20 13.07 С 1 20 км 8/5 1000 м
[Sc Ac trans]
+17.0 +14.6 86 +18 +18 1010.4 1000.7
21 13.07 З 2 20 км 8/5 1000 м
[Sc Ac trans]
+16.8 +14.7 87 +17 +17 1010.4 1000.7
22 13.07 З 2 20 км 5/3 1000 м
[Sc Ac trans]
+16.0 +14.2 89 +16 +16 1010.2 1000.5
23 13.07 З 2 20 км 6/4 1000 м
[Sc Ac trans]
+16.5 +14.9 90 +17 +17 1010.0 1000.3
00 14.07 З 2 15 км 3/3 1000 м
[Sc]
+16.3 +14.7 90 +16 +16 1009.7 1000.0
01 14.07 З 2 15 км 3/3 1000 м
[Sc]
+15.8 +14.5 92 +16 +16 1009.5 999.8
02 14.07 З 2 15 км ясно +15.7 +14.1 90 +16 +16 1009.4 999.7
03 14.07 З 2 15 км 4/4 1000 м
[Sc]
+15.3 +13.8 91 +15 +15 1009.5 999.7
04 14.07 З 2 20 км 8/5 1000 м
[Sc Ac trans]
+15.5 +13.7 89 +15 +16 1009.3 999.6
05 14.07 СЗ 3 20 км 8/5 1000 м
[Sc Ac trans]
+15.8 +13.6 87 +15 +16 1009.3 999.6
06 14.07 С 4 20 км 5/3 1000 м
[Sc Ac trans]
+17.1 +14.2 83 +17 +19 1009.5 999.8 +14.9
07 14.07 С 2 20 км 9/5 1000 м
[Sc Ac trans]
+18.2 +15.5 84 +19 +21 1009.6 999.9
08 14.07 З 2 20 км 9/6 1000 м
[Cu Sc Ac trans]
+19.9 +15.8 77 +23 +26 комфорт 1009.7 1000.1
09 14.07 З 3 20 км 9/8 1000 м
[Cu Sc Ac trans]
+20.0 +15.1 73 +23 +24 комфорт 1009.9 1000.3
10 14.07 С 4 20 км 9/9 1000 м
[Cu Sc]
+22.0 +15.3 66 +26 +27 душно 1009.5 1000.0
11 14.07 С 5 20 км 9/9 1000 м
[Cu Sc]
+22.6 +14.9 62 +26 +27 жарко 1009.3 999.8
12 14.07 С 4 20 км 9/9 1000 м
[Cu Sc]
+22.9 +13.6 56 +26 +27 жарко 1008.8 999.3
13 14.07 В 4 20 км 9/9 1000 м
[Cu Sc]
+22.8 +15.5 63 +27 +28 душно 1008.9 999.4
14 14.07 СВ 2 20 км 9/6 1000 м
[Cu Sc Ci sp]
+23.2 +14.9 60 +27 +31 душно 1009.0 999.5
15 14.07 В 2 20 км в посл. час гроза 9/6 1000 м
[Cu Sc Ac trans Ci sp]
+23.5 +15.9 62 +27 +28 душно 1008.8 999.3
16 14.07 С 5
{12}
20 км гроза без осадков 9/6 1000 м
[Cb cap Ac trans Ci sp]
+20.8 +14.4 67 +24 +24 комфорт 1009.2 999.6
17 14.07 С 4 20 км в посл. час гроза 6/4 1000 м
[Cu Sc Ac trans Ci sp]
+20.8 +14.9 69 +24 +24 комфорт 1009.6 1000.0
18 14.07 С 2
{12}
20 км {гроза} 4/3 1000 м
[Sc Ac trans]
+20.2 +14.8 71 +23 +23 комфорт 1009.7 1000.1 +24.9
19 14.07 СЗ 2 15 км 8/5 1000 м
[Sc Ac trans]
+17.8 +14.7 82 +18 +18 1010.3 1000.6
20 14.07 З 2 15 км 8/5 1000 м
[Sc Ac trans]
+17.2 +14.9 86 +18 +18 1010.9 1001.2
21 14.07 З 2 15 км 9/3 1000 м
[Sc Ac As]
+16.9 +15.1 89 +17 +17 1010.9 1001.2
22 14.07 СЗ 2 15 км 9/4 1000 м
[Sc Ac As]
+16.5 +14.9 90 +17 +17 1010.8 1001.1
23 14.07 СЗ 2 15 км 5/3 1000 м
[Sc Ac trans]
+15.7 +14.4 92 +16 +16 1010.9 1001.1
00 15.07 С 2 15 км 3/1 1000 м
[Sc Ac trans]
+15.5 +14.2 92 +15 +15 1011.0 1001.2
01 15.07 С 2 15 км 1/1 1000 м
[Sc]
+14.5 +13.3 93 +14 +14 1010.9 1001.1
02 15.07 С 1 15 км ясно +13.5 +12.5 94 +14 +14 1010.8 1001.0
03 15.07 СЗ 1 12 км ясно +13.0 +12.1 94 +13 +13 1010.8 1001.0
04 15.07 СЗ 1 12 км ясно +12.8 +11.9 94 +13 +13 1011.1 1001.2
05 15.07 С 3 15 км ясно +14.7 +13.2 91 +14 +16 1011.1 1001.3
06 15.07 С 4 15 км ясно +17.0 +13.5 80 +17 +20 1011.3 1001.6 +12.8
07 15.07 С 3 20 км ясно +19.0 +13.8 72 +20 +28 1011.7 1002.0
08 15.07 С 4 20 км ясно +20.4 +14.0 67 +23 +32 комфорт 1011.5 1001.9
09 15.07 С 4 20 км ясно +21.7 +13.3 59 +24 +35 комфорт 1011.5 1001.9
10 15.07 С 4 20 км 1/1 1000 м
[Cu med, cong]
+22.6 +13.2 55 +26 +36 жарко 1011.5 1002.0
11 15.07 С 4 20 км 3/3 1000 м
[Cu med, cong]
+24.0 +13.0 50 +26 +35 жарко 1011.5 1002.0
12 15.07 С 3 20 км 4/4 1000 м
[Cu med, cong]
+24.2 +12.1 47 +26 +34 жарко 1011.3 1001.8
13 15.07 С 5 20 км 4/4 1000 м
[Cu med, cong]
+24.4 +12.0 46 +26 +30 жарко 1011.2 1001.7
14 15.07 С 5 20 км 4/4 1000 м
[Cu med, cong]
+24.7 +10.5 41 +26 +29 жарко 1011.2 1001.7
15 15.07 С 6 20 км 4/3 1000 м
[Cu med, cong Ac trans]
+24.7 +10.9 42 +26 +28 жарко 1011.3 1001.8
16 15.07 С 4 20 км 3/1 1000 м
[Cu med, cong Ac trans]
+25.0 +9.6 38 +26 +27 жарко 1011.2 1001.7
17 15.07 С 3 20 км 1/0
[Ac trans]
+24.6 +8.6 36 +25 +26 комфорт 1011.2 1001.7
18 15.07 С 2 20 км ясно +22.3 +9.8 45 +24 +24 комфорт 1011.3 1001.8 +25.7
19 15.07 С 1 20 км 1/0
[Ci sp]
+18.8 +10.2 57 +21 +21 комфорт 1011.7 1002.0
20 15.07 СЗ 1 20 км 3/0
[Ci sp]
+15.9 +11.1 73 +17 +17 1012.3 1002.5
21 15.07 З 1 20 км 3/0
[Ci sp]
+14.7 +10.7 77 +15 +15 1012.7 1002.9
22 15.07 З 2 20 км 4/0
[Ci sp]
+14.1 +10.2 77 +14 +14 1012.8 1003.0
23 15.07 З 1 20 км 4/1 1000 м
[Sc Ci sp]
+13.6 +10.0 79 +14 +14 1012.8 1003.0
00 16.07 З 1 20 км 4/1 1000 м
[Sc Ci sp]
+13.0 +10.1 83 +13 +13 1012.8 1002.9
01 16.07 З 1 20 км 4/1 1000 м
[Sc Ci sp]
+12.4 +10.1 86 +12 +12 1012.6 1002.7
02 16.07 З 1 20 км 1/0
[Ci sp]
+12.0 +9.8 86 +12 +12 1012.5 1002.6
03 16.07 З 1 20 км 1/0
[Ci sp]
+11.9 +9.7 86 +12 +12 1012.6 1002.7
04 16.07 З 2 20 км 3/1 1000 м
[Sc Ci sp]
+11.9 +9.5 85 +11 +11 1012.4 1002.5
05 16.07 С 1 20 км 3/1 1000 м
[Sc Ci sp]
+15.0 +11.4 79 +16 +18 1012.6 1002.8
06 16.07 В 1 20 км 3/1 1000 м
[Sc Ci sp]
+19.1 +10.9 59 +21 +26 комфорт 1012.6 1002.9 +11.5
07 16.07 В 2 20 км 3/1 1000 м
[Sc Ci sp]
+20.9 +12.1 57 +24 +32 комфорт 1012.4 1002.8
08 16.07 С 1 20 км 1/0
[Ci fib]
+23.9 +12.5 49 +26 +40 жарко 1012.3 1002.8
09 16.07 С 2 20 км 1/1 1000 м
[Cu hum]
+24.6 +10.3 40 +26 +40 жарко 1012.4 1002.9
10 16.07 С 2 20 км 4/4 1000 м
[Cu Sc]
+24.1 +9.4 39 +25 +36 комфорт 1012.5 1003.0
11 16.07 С 2 20 км 6/6 1000 м
[Cu Sc]
+25.8 +8.2 33 +26 +33 жарко 1012.2 1002.8
12 16.07 С 4 20 км 6/6 1000 м
[Cu Sc]
+26.5 +8.7 32 +27 +31 жарко 1011.8 1002.4

 

Местоположение метеостанции Кикинда (Сербия): широта 45.85 долгота 20.47 высота над уровнем моря 82 м.

В архиве по умолчанию представлена погода в Кикинде за последнюю неделю. Архивные данные за месяц целиком и за предыдущие месяцы, начиная с января 2011 года, Вы можете получить, выбрав интересующий диапазон дат из раскрывающегося списка и нажав кнопку "Ввод!".


*Определитесь, кто Вы:
робот инопланетянин человек

Внимание! Время в таблицах - всемирное. Для получения местного времени необходимо прибавить поправку, которая равна 1 ч.

Смотрите также архив погоды в соседних городах и на ближайших метеорологических станциях:

Погода в Жимболии (Румыния) (19 км)
Погода в Сынниколау-Маре (Румыния) (27 км)
Погода в Сегеде (Венгрия) (53 км)
Погода в Зренянине (Сербия) (54 км)
Погода в Паличе (Сербия) (61 км)
Погода в Тимишоаре (Румыния) (61 км)
Погода в Банлоке (Румыния) (73 км)
Погода в Араде (Румыния) (75 км)
Погода в Нови-Саде (Сербия) (75 км)
Погода в Банатски-Карловаце (Сербия) (99 км)

Пояснения к столбцам:

Ветер - указаны скорость ветра в м/с - средняя за 10 мин, порывы в срок и между сроками (в фигурных скобках) и направление, откуда дует ветер: С - северный, СВ - северо-восточный, В - восточный, ЮВ - юго-восточный, Ю - южный, ЮЗ - юго-западный, З - западный, СЗ - северо-западный.
Видимость - горизонтальная дальность видимости в метрах или километрах. При видимости от 1 до 10 км при отсутствии осадков обычно наблюдается дымка, при ухудшении видимости до 1 км и менее - туман. В сухую погоду видимость может ухудшаться дымом, пылью или мглою.
Явления - указаны атмосферные явления, наблюдавшиеся в срок или в последний час перед сроком; фигурными скобками обозначены явления, наблюдавшиеся между сроками (за 1-3 часа до срока); квадратными скобками обозначены град или гололедные отложения с указанием их диаметра в мм.
Облачность - указаны через наклонную черту общая и нижняя облачность в баллах и высота нижней границы облаков в метрах; квадратными скобками обозначены формы облаков: Ci - перистые, Cs - перисто-слоистые, Cc - перисто-кучевые, Ac - высококучевые, As - высокослоистые, Sc - слоисто-кучевые, Ns - слоисто-дождевые, Cu - кучевые, Cb - кучево-дождевые. Подробнее классификацию облаков см. в Атласе облаков (PDF).
T - Температура воздуха - температура, измеренная на высоте 2 м над землей.
Td - Температура точки росы - температура, при понижении до которой содержащийся в воздухе водяной пар достигнет насыщения.
f - Относительная влажность воздуха - влажноcть воздуха, измеренная на высоте 2 м над землей.
Te - Эффективная температура - температура, которую ощущает одетый по сезону человек в тени. Характеристика душности погоды. При расчете учитывается влияние влажности воздуха и скорости ветра на теплоощущения человека.
Tes - Эффективная температура на солнце - температура, которую ощущает человек, с поправкой на солнечный нагрев. Характеристика знойности погоды. Зависит от высоты солнца над горизонтом, облачности и скорости ветра. Ночью, в пасмурную погоду, а также при ветре 12 м/с и более поправка равна нулю.
P - Атмосферное давление - приведенное к уровню моря атмосферное давление.
Po - Атмосферное давление - измеренное на уровне метеостанции атмосферное давление.
Tmin - Минимальная температура - минимум температуры воздуха на высоте 2 м над землей.
Tmax - Максимальная температура - максимум температуры воздуха на высоте 2 м над землей.
R - Количество осадков - Количество выпавших осадков за период времени, мм. При наведении курсора мыши на число - период времени, за который выпало указанное количество осадков.
R24 - Количество осадков - Количество выпавших осадков за 24 часа, мм.
S - Снежный покров - Высота снежного покрова, см. При наведении курсора мыши на число - состояние снежного покрова и степень покрытия местности в баллах.